Terminal Aerodrome Forecast
Issued by NWS Wakefield, VA

Home | Current Version | Previous Version | Text Only | Print | Product List | Glossary On
Versions: 1 2 3 4 5 6 7 8 9 10 11 12 13 14 15 16 17 18 19 20 21 22 23 24
230
FTUS41 KAKQ 180959 AAA
TAFECG
TAF AMD
KECG 180959Z 1810/1906 23008KT P6SM VCSH OVC040
     FM181500 27011KT P6SM OVC040
     FM181700 30013G20KT P6SM BKN070
     FM182300 33009KT P6SM FEW120=

USA.gov is the U.S. government's official web portal to all federal, state and local government web resources and services.